Regional Weather Roundup
Issued by NWS

Home | Current Version | Previous Version | Graphics & Text | Print | Product List | Glossary On
Versions: 1 2 3 4 5 6 7 8 9 10 11 12 13 14 15 16 17 18 19 20 21 22 23 24 25 26 27 28 29 30 31 32 33 34 35 36 37 38 39 40 41 42 43 44 45 46 47 48 49 50
000
ASUS43 KLOT 220600
RWRIL

ILLINOIS REGIONAL WEATHER ROUNDUP
NATIONAL WEATHER SERVICE CHICAGO/ROMEOVILLE IL
100 AM CDT TUE JUL 22 2014

NOTE: "FAIR" INDICATES FEW OR NO CLOUDS BELOW 12,000 FEET WITH NO
SIGNIFICANT WEATHER AND/OR OBSTRUCTIONS TO VISIBILITY.

* THESE STATIONS ARE NOT UNDER NWS QUALITY CONTROL. THEY ALSO MAY NOT
  REPORT WEATHER SUCH AS PRECIPITATION OR FOG.

ILZ001-002-007-009-015-016-024-220700-
NORTHWEST ILLINOIS

CITY           SKY/WX    TMP DP  RH WIND       PRES   REMARKS
MOLINE         CLEAR     75  68  78 S7        30.02R
6HR MIN TEMP:  75; 6HR MAX TEMP:  83;

STERLING*      CLEAR     72  66  83 S5        30.04S
$$

ILZ003-004-008-010-011-017-018-220700-
NORTH CENTRAL ILLINOIS

CITY           SKY/WX    TMP DP  RH WIND       PRES   REMARKS
ROCKFORD       PTCLDY    71  66  84 S7        30.05S
6HR MIN TEMP:  71; 6HR MAX TEMP:  82;

FREEPORT*      CLEAR     71  69  93 S6        30.06R
$$

ILZ005-006-012>014-019>023-220700-
NORTHEAST ILLINOIS

CITY           SKY/WX    TMP DP  RH WIND       PRES   REMARKS
CHICAGO-OHARE  CLEAR     73  63  70 S7        30.05S
6HR MIN TEMP:  71; 6HR MAX TEMP:  82;

CHICAGO-MIDWAY CLEAR     76  65  68 S6        30.06S
6HR MIN TEMP:  76; 6HR MAX TEMP:  85;

AURORA         CLEAR     70  65  84 S7        30.06S
6HR MIN TEMP:  70; 6HR MAX TEMP:  81;

LANSING*       CLEAR     67  63  87 S3        30.07R
WAUKEGAN       CLEAR     71  64  78 S7        30.04S
6HR MIN TEMP:  69; 6HR MAX TEMP:  78;

DUPAGE AIRPORT CLEAR     70  65  84 S6        30.05S
6HR MIN TEMP:  70; 6HR MAX TEMP:  81;

WHEELING       CLEAR     75  65  70 S9        30.06S
6HR MIN TEMP:  74; 6HR MAX TEMP:  84;

NORTHERLY ISL    N/A     76  63  64 S8          N/A
$$

LMZ740>746-220700-
SOUTHERN LAKE MICHIGAN

STATION/POSITION SKY/WX   TEMP    WIND        PRES    VSBY  WAVE
                          AIR SEA DIR/SP/G                  HT/PER
                          (F)     (DEG/KT/KT) (MB)    (MI)  (FT/S)
SOUTHERN BUOY              72 69  170/  8/ 10 1017.8S         1
WAUKEGAN HARBOR            70     210/  7/  7 1018.6S
HARRISON CRIB              75     180/ 12/ 13   N/A
BURNHAM HARBOR             76     220/  7/  9   N/A
CALUMET HARBOR             74     190/  2/  3 1016.8S
BURNS HARBOR               71     200/  6/  8 1018.6S
MICHIGAN CITY              74     150/  9/ 13   N/A
$$

ILZ025>027-034>036-040-047-049-050-058-095>099-220700-
WEST-CENTRAL ILLINOIS

CITY           SKY/WX    TMP DP  RH WIND       PRES   REMARKS
QUINCY         CLEAR     73  67  81 S8        30.05R
GALESBURG*     PTCLDY    72  68  89 SE6       30.04F
MACOMB*        CLEAR     70  68  94 S6        30.07S
$$

ILZ028>032-037-038-041>044-048-051>054-059>061-220700-
CENTRAL ILLINOIS

CITY           SKY/WX    TMP DP  RH WIND       PRES   REMARKS
DECATUR        CLEAR     70  65  84 S3        30.08R
PEORIA         CLEAR     74  65  73 S9        30.06R
6HR MIN TEMP:  73; 6HR MAX TEMP:  84;

SPRINGFIELD    CLEAR     72  65  78 S6        30.07R
6HR MIN TEMP:  72; 6HR MAX TEMP:  83;

TAYLORVILLE    NOT AVBL
$$

ILZ033-039-045-046-055>057-062-063-220700-
EAST-CENTRAL ILLINOIS

CITY           SKY/WX    TMP DP  RH WIND       PRES   REMARKS
CHAMPAIGN      CLEAR     67  64  90 SE6       30.08S
MATTOON        CLEAR     66  64  93 S5        30.07F
$$

ILZ079-100>102-220700-
SOUTHWEST ILLINOIS

CITY           SKY/WX    TMP DP  RH WIND       PRES   REMARKS
BELLEVILLE     CLEAR     69  67  93 CALM      30.06S
CAHOKIA*       CLEAR     71  66  84 CALM      30.06S
SPARTA*        CLEAR     68  64  88 CALM      30.07F
$$

ILZ064>066-069>071-074>076-080>082-084>086-088>090-092>094-220700-
SOUTH-CENTRAL ILLINOIS

CITY           SKY/WX    TMP DP  RH WIND       PRES   REMARKS
CARBONDALE     CLEAR     66  63  90 CALM      30.07S FOG
6HR MIN TEMP:  66; 6HR MAX TEMP:  83;

MT. VERNON     CLEAR     63  59  88 CALM      30.08F
SALEM*         CLEAR     70  67  92 CALM      30.08S
$$

ILZ067-068-072-073-078-083-087-091-220700-
SOUTHEAST ILLINOIS

CITY           SKY/WX    TMP DP  RH WIND       PRES   REMARKS
FAIRFIELD*     CLEAR     66  64  94 CALM      30.08R FOG
HARRISBURG*    CLEAR     65  65 100 CALM      30.09S FOG
ROBINSON*      FOG       65  64  97 CALM      30.09S VSB 1/4
$$

ABBREVIATIONS USED IN REMARKS
   TC - TEMPERATURE IN CELSIUS
  WCI - WIND CHILL INDEX
   HX - HEAT INDEX
  VSB - VISIBILITY
$$




USA.gov is the U.S. government's official web portal to all federal, state and local government web resources and services.